STARLINK-11262, 62009

Orbit data source: Space-Track

STARLINK-11262, 62009 is a payload satellite owned by SpaceX/Seattle (US) in LEO that was launched on Mon, 18 Nov 2024 UTC via an FALCON 9 launch vehicle from the Air Force Western Test Range (AFWTR). Payloads include a variety of satellites, spacecraft, and rockets equipped with specific instruments for various scientific and technological missions. These include communications satellites like Starlink; space stations such as the ISS; scientific satellites like the Hubble; Earth observation satellites from companies like Planet Labs, Umbra, and HawkEye 360; GPS; miniature CubeSats for education and research; and military/defense satellites.

Loading next visibility...
STARLINK-11262 details
Identifier
62009, 2024-213B
Orbit
LEO
Last TLE update21 hours ago
Origin
Flag of USSpaceX/Seattle (US)
ManufacturerSpaceX/Seattle
MissionOperational spacecraft
Bus & MotorSTARLINK V2M, Unknown motor
Mass730 kg wet, ~700 kg dry
Launch date (UTC)
2024-11-18 (1 month ago)
Launch vehicle
FALCON 9
Launch site
Air Force Western Test Range (AFWTR)
Object type
Payload
Rocket body
Debris
Shape & HBRUnknown
Radar Cross SectionLarge (>1 m²)

Expand to show TLE details & history

TLE from 21 hours ago
0 STARLINK-11262
1 62009U 24213B   24360.55025841 -.00004877  00000-0 -25841-4 0  9996
2 62009  53.1562  48.9863 0001194  82.4784 277.6372 15.76709753  7008
Epoch: 2024-12-25T13:12Z
Definitive object data (Epoch: 2024-12-25T13:12:22.326Z)
Latitude-0.00007°
Longitude116.35083°
Altitude340.581 km
Speed7.706 km/s
True Right ascension03h 15m 56s
True Declination0° 00' 00"
Sunlit
Object was in full shadow at TLE epoch
Visualization TLE readout
Latitude-11.57984°
Longitude103.16004°
Altitude343.062 km
Speed7.703 km/s
Apparent Right ascension00h 28m 27s
Apparent Declination-29° 36' 54"
Sunlit
Object is in full shadow
Visualization observer readout
Local Sidereal Time09:47:46
Azimuth274.812° WNW
Elevation-55.748°
Doppler factor1
Orbital elements
Apogee altitude340.834 km
Perigee altitude339.23 km
Semi-major axis6,718.169 km
Eccentricity0.0001194
Inclination53.1562°
RAAN48.9863°
Arg. of periapsis82.4784°
True anomaly277.62364°
Mean anomaly277.6372°
Eccentric anomaly277.63042°
Mean motion3.94155 °/min
BSTAR-0.000025841
Orbital period91.33 mins
Loading maneuver chart data...
Loading historical data...
Loading historical data...
Loading historical data...
Loading historical data...
Loading historical data...
Loading historical data...
Loading historical data...

STARLINK-11262 Visibility forecast

Observer location: undefined°, undefined

Span
Click to sort rows by Start time (UTC) header in descending order
Start Az.
Max El. time (UTC)
Max El. Az.
Max El.
End time (UTC)
End Az.
4 mins2024-12-26 12:30:34.882Z327.938° NNW2024-12-26 12:32:34.882Z36.549° NE33.625°2024-12-26 12:34:34.882Z103.773° ESE
|